STARLINK-1858 (47145 NORAD) Tracking and Keplerian Element Data
This shows tracking and keplerian element data for the satellite.
Feedback or suggestion? Click here.
Element | Value |
Catalog | 47145 |
Name | STARLINK-1858 |
Epoch Orbit | 176 |
Epoch Day | 62.91667824 |
Epoch Year | 2021 |
RAAN | 229.9429 |
Inclination | 53.0542 |
Eccentricity | 0.0005433 |
Argument of Perigee | 267.6345 |
Mean Anonmoly | 199.9334 |
Mean Motion | 15.44033958 |
Decay Rate | -0.00401191 |
L1 | 1 47145U 20088Z 21062.91667824 -.00401191 00000-0 -90944-2 0 9999 |
L2 | 2 47145 53.0542 229.9429 0005433 267.6345 199.9334 15.44033958 1761 |
Live tracking and technical data element details for STARLINK-1858 (NORAD 47145). STARLINK-1858 can be tracked NOW for your location showing map with azimuth and elevation plus other details from your city location.
Track the satellite on the map from your city or location and see movement details for azimuth, elevation, latitude, longitude, range, height, and movement on the map or in text.
IsCatalogInMostPopularTable: catalog: 47145, numindb: 34
Update: records affected: 1
GetName: 47145 STARLINK-1858
Hit Count: updated at: Fri, 05 Mar 2021 07:21:20 GMT